Location: Newark
(30.1000°N, 109.4667°E)
Time: 07:55:26
(UTC+00:00)

Vanguard 1 Rocket - Pass Details

Date: 18 February 2020
Orbit: 650 x 4226 km, 34.3° (Epoch: 04 April)

Event Time Altitude Azimuth Distance (km) Brightness Sun altitude
Exits shadow 21:43:01 44° 317° (NW) 927 7.1 -21.5°
Maximum altitude 21:43:54 52° 355° (N) 823 7.1 -21.3°
Drops below altitude 10° 21:48:11 10° 73° (ENE) 2,067 10.3 -20.4°
Sets 21:50:37 0° 79° (E) 3,087 11.6 -19.8°
